H1 CPF 2 NER 2021 12 13 9 347 01 glonass133 H2 1403201 9133 40001 2021 12 13 0 0 0 2021 12 16 23 45 0 900 1 1 0 0 0 1 H9 10 0 59561 0.00000 0 12211078.243 -16970894.115 14641595.611 10 0 59561 900.00000 0 11538573.712 -15130059.876 17011507.286 10 0 59561 1800.00000 0 10954138.786 -12977986.202 19051596.749 10 0 59561 2700.00000 0 10504398.634 -10561811.557 20722276.778 10 0 59561 3600.00000 0 10227114.117 -7938212.424 21991101.933 10 0 59561 4500.00000 0 10149496.814 -5171277.563 22833397.022 10 0 59561 5400.00000 0 10286982.011 -2330079.178 23232737.403 10 0 59561 6300.00000 0 10642511.506 513959.619 23181271.968 10 0 59561 7200.00000 0 11206356.995 3289792.999 22679882.373 10 0 59561 8100.00000 0 11956492.360 5929464.301 21738175.057 10 0 59561 9000.00000 0 12859500.335 8370690.034 20374305.469 10 0 59561 9900.00000 0 13871976.677 10559209.329 18614636.967 10 0 59561 10800.00000 0 14942374.013 12450801.652 16493239.964 10 0 59561 11700.00000 0 16013208.817 14012889.047 14051239.864 10 0 59561 12600.00000 0 17023539.356 15225656.089 11336025.512 10 0 59561 13500.00000 0 17911610.500 16082640.784 8400332.707 10 0 59561 14400.00000 0 18617553.784 16590771.726 5301220.103 10 0 59561 15300.00000 0 19086028.176 16769850.065 2098957.368 10 0 59561 16200.00000 0 19268689.125 16651498.452 -1144152.471 10 0 59561 17100.00000 0 19126380.326 16277621.859 -4364992.981 10 0 59561 18000.00000 0 18630954.232 15698446.002 -7500871.775 10 0 59561 18900.00000 0 17766643.008 14970217.326 -10490750.314 10 0 59561 19800.00000 0 16530920.729 14152662.899 -13276441.011 10 0 59561 20700.00000 0 14934819.381 13306318.866 -15803747.184 10 0 59561 21600.00000 0 13002684.505 12489841.516 -18023522.934 10 0 59561 22500.00000 0 10771380.131 11757415.565 -19892631.780 10 0 59561 23400.00000 0 8288976.105 11156369.775 -21374785.187 10 0 59561 24300.00000 0 5612972.597 10725100.901 -22441244.890 10 0 59561 25200.00000 0 2808135.928 10491393.462 -23071375.814 10 0 59561 26100.00000 0 -55963.951 10471205.868 -23253039.509 10 0 59561 27000.00000 0 -2907611.933 10667973.379 -22982821.275 10 0 59561 27900.00000 0 -5675691.895 11072456.542 -22266087.398 10 0 59561 28800.00000 0 -8292402.882 11663140.662 -21116872.113 10 0 59561 29700.00000 0 -10695835.290 12407168.759 -19557597.160 10 0 59561 30600.00000 0 -12832301.061 13261768.132 -17618629.777 10 0 59561 31500.00000 0 -14658322.186 14176110.041 -15337688.018 10 0 59561 32400.00000 0 -16142196.284 15093523.953 -12759105.054 10 0 59561 33300.00000 0 -17265075.609 15953973.040 -9932966.686 10 0 59561 34200.00000 0 -18021516.023 16696686.696 -6914138.796 10 0 59561 35100.00000 0 -18419474.673 17262839.308 -3761203.465 10 0 59561 36000.00000 0 -18479757.938 17598162.582 -535324.263 10 0 59561 36900.00000 0 -18234944.127 17655381.495 2700937.313 10 0 59561 37800.00000 0 -17727827.278 17396371.360 5884831.422 10 0 59561 38700.00000 0 -17009448.273 16793945.121 8954632.204 10 0 59561 39600.00000 0 -16136796.619 15833195.505 11850829.443 10 0 59561 40500.00000 0 -15170279.816 14512335.220 14517276.768 10 0 59561 41400.00000 0 -14171066.773 12842999.272 16902274.587 10 0 59561 42300.00000 0 -13198416.766 10849995.907 18959567.135 10 0 59561 43200.00000 0 -12307105.872 8570515.450 20649234.956 10 0 59561 44100.00000 0 -11545058.579 6052828.703 21938466.080 10 0 59561 45000.00000 0 -10951283.645 3354527.743 22802191.448 10 0 59561 45900.00000 0 -10554200.581 540380.661 23223572.655 10 0 59561 46800.00000 0 -10370426.883 -2320112.199 23194332.751 10 0 59561 47700.00000 0 -10404077.097 -5155360.507 22714923.541 10 0 59561 48600.00000 0 -10646603.527 -7894416.451 21794525.767 10 0 59561 49500.00000 0 -11077185.942 -10469685.254 20450881.464 10 0 59561 50400.00000 0 -11663654.735 -12819501.890 18709960.838 10 0 59561 51300.00000 0 -12363909.611 -14890467.529 16605469.043 10 0 59561 52200.00000 0 -13127774.947 -16639448.752 14178201.311 10 0 59561 53100.00000 0 -13899214.320 -18035156.154 11475257.978 10 0 59561 54000.00000 0 -14618811.170 -19059236.357 8549133.831 10 0 59561 54900.00000 0 -15226410.888 -19706831.583 5456698.931 10 0 59561 55800.00000 0 -15663812.251 -19986583.192 2258090.703 10 0 59561 56700.00000 0 -15877393.629 -19920079.162 -984460.931 10 0 59561 57600.00000 0 -15820561.707 -19540769.059 -4207851.902 10 0 59561 58500.00000 0 -15455917.807 -18892392.797 -7349341.099 10 0 59561 59400.00000 0 -14757048.707 -18026990.307 -10347781.077 10 0 59561 60300.00000 0 -13709864.821 -17002577.175 -13144817.312 10 0 59561 61200.00000 0 -12313427.961 -15880585.500 -15686031.500 10 0 59561 62100.00000 0 -10580232.655 -14723179.177 -17922005.872 10 0 59561 63000.00000 0 -8535928.306 -13590557.838 -19809287.293 10 0 59561 63900.00000 0 -6218493.309 -12538363.960 -21311232.117 10 0 59561 64800.00000 0 -3676895.326 -11615302.773 -22398715.595 10 0 59561 65700.00000 0 -969293.491 -10861075.240 -23050692.463 10 0 59561 66600.00000 0 1839142.476 -10304710.744 -23254598.483 10 0 59561 67500.00000 0 4678705.565 -9963368.892 -23006585.935 10 0 59561 68400.00000 0 7477814.517 -9841659.885 -22311589.321 10 0 59561 69300.00000 0 10165756.208 -9931510.909 -21183220.730 10 0 59561 70200.00000 0 12675394.021 -10212583.051 -19643497.562 10 0 59561 71100.00000 0 14945730.511 -10653220.109 -17722408.294 10 0 59561 72000.00000 0 16924218.707 -11211888.509 -15457325.061 10 0 59561 72900.00000 0 18568727.165 -11839046.957 -12892274.559 10 0 59561 73800.00000 0 19849078.242 -12479366.616 -10077081.389 10 0 59561 74700.00000 0 20748096.771 -13074207.942 -7066400.479 10 0 59561 75600.00000 0 21262126.839 -13564249.617 -3918657.204 10 0 59561 76500.00000 0 21400996.395 -13892158.720 -694915.647 10 0 59561 77400.00000 0 21187432.411 -14005189.539 2542303.093 10 0 59561 78300.00000 0 20655952.226 -13857601.455 5730229.755 10 0 59561 79200.00000 0 19851278.441 -13412793.933 8807059.667 10 0 59561 80100.00000 0 18826344.523 -12645068.521 11713145.984 10 0 59561 81000.00000 0 17639975.211 -11540943.328 14392150.585 10 0 59561 81900.00000 0 16354339.213 -10099964.150 16792130.752 10 0 59561 82800.00000 0 15032280.949 -8334977.378 18866540.941 10 0 59561 83700.00000 0 13734642.987 -6271852.147 20575130.846 10 0 59561 84600.00000 0 12517690.945 -3948661.929 21884722.926 10 0 59561 85500.00000 0 11430748.302 -1414358.246 22769854.784 10 0 59562 0.00000 0 10514139.793 1273009.748 23213274.372 10 0 59562 900.00000 0 9797528.667 4048458.977 23206278.752 10 0 59562 1800.00000 0 9298718.471 6842527.531 22748889.237 10 0 59562 2700.00000 0 9022967.907 9583925.576 21849859.974 10 0 59562 3600.00000 0 8962848.959 12202269.736 20526518.397 10 0 59562 4500.00000 0 9098654.161 14630789.781 18804440.093 10 0 59562 5400.00000 0 9399336.481 16808895.540 16716963.254 10 0 59562 6300.00000 0 9823942.855 18684497.571 14304551.012 10 0 59562 7200.00000 0 10323481.471 20215984.819 11614013.053 10 0 59562 8100.00000 0 10843144.333 21373776.515 8697600.798 10 0 59562 9000.00000 0 11324791.244 22141383.080 5611993.178 10 0 59562 9900.00000 0 11709589.865 22515931.211 2417192.680 10 0 59562 10800.00000 0 11940699.439 22508130.899 -824646.681 10 0 59562 11700.00000 0 11965883.525 22141685.771 -4050436.038 10 0 59562 12600.00000 0 11739939.847 21452171.805 -7197388.344 10 0 59562 13500.00000 0 11226842.913 20485432.240 -10204249.913 10 0 59562 14400.00000 0 10401507.278 19295557.119 -13012501.751 10 0 59562 15300.00000 0 9251095.477 17942533.650 -15567506.147 10 0 59562 16200.00000 0 7775814.181 16489667.495 -17819575.420 10 0 59562 17100.00000 0 5989163.881 15000884.588 -19724941.464 10 0 59562 18000.00000 0 3917630.869 13538027.969 -21246606.959 10 0 59562 18900.00000 0 1599833.801 12158263.819 -22355061.862 10 0 59562 19800.00000 0 -914839.874 10911705.886 -23028851.667 10 0 59562 20700.00000 0 -3568050.790 9839357.833 -23254987.021 10 0 59562 21600.00000 0 -6294702.348 8971459.193 -23029187.551 10 0 59562 22500.00000 0 -9025422.022 8326303.315 -22355955.980 10 0 59562 23400.00000 0 -11689226.266 7909575.654 -21248481.849 10 0 59562 24300.00000 0 -14216258.696 7714238.736 -19728377.386 10 0 59562 25200.00000 0 -16540488.323 7720967.196 -17825251.064 10 0 59562 26100.00000 0 -18602256.317 7899113.271 -15576127.483 10 0 59562 27000.00000 0 -20350566.297 8208160.965 -13024724.946 10 0 59562 27900.00000 0 -21745023.822 8599606.718 -10220604.717 10 0 59562 28800.00000 0 -22757345.284 9019186.662 -7218208.477 10 0 59562 29700.00000 0 -23372374.415 9409356.101 -4075802.510 10 0 59562 30600.00000 0 -23588565.088 9711916.306 -854348.953 10 0 59562 31500.00000 0 -23417911.244 9870677.693 2383673.992 10 0 59562 32400.00000 0 -22885327.868 9834046.866 5575480.189 10 0 59562 33300.00000 0 -22027509.759 9557428.337 8659188.736 10 0 59562 34200.00000 0 -20891316.493 9005339.498 11575018.756 10 0 59562 35100.00000 0 -19531751.712 8153149.451 14266442.958 10 0 59562 36000.00000 0 -18009621.509 6988368.039 16681278.007 10 0 59562 36900.00000 0 -16388969.973 5511430.202 18772690.947 10 0 59562 37800.00000 0 -14734398.960 3735941.753 20500102.784 10 0 59562 38700.00000 0 -13108383.746 1688374.944 21829972.292 10 0 59562 39600.00000 0 -11568696.316 -592774.891 22736445.308 10 0 59562 40500.00000 0 -10166043.356 -3058338.227 23201857.405 10 0 59562 41400.00000 0 -8942017.092 -5650271.394 23217080.350 10 0 59562 42300.00000 0 -7927444.169 -8303834.652 22781705.580 10 0 59562 43200.00000 0 -7141201.277 -10950059.484 21904060.759 10 0 59562 44100.00000 0 -6589546.918 -13518404.077 20601058.469 10 0 59562 45000.00000 0 -6265997.371 -15939487.699 18897879.066 10 0 59562 45900.00000 0 -6151752.209 -18147791.118 16827492.798 10 0 59562 46800.00000 0 -6216651.739 -20084211.045 14430029.360 10 0 59562 47700.00000 0 -6420626.336 -21698362.104 11752006.118 10 0 59562 48600.00000 0 -6715576.711 -22950529.996 8845429.157 10 0 59562 49500.00000 0 -7047605.671 -23813193.682 5766784.052 10 0 59562 50400.00000 0 -7359506.727 -24272052.223 2575935.887 10 0 59562 51300.00000 0 -7593403.570 -24326512.688 -665039.884 10 0 59562 52200.00000 0 -7693427.697 -23989618.254 -3893072.434 10 0 59562 53100.00000 0 -7608319.542 -23287419.396 -7045331.771 10 0 59562 54000.00000 0 -7293841.506 -22257814.833 -10060461.084 10 0 59562 54900.00000 0 -6714899.223 -20948911.522 -12879780.108 10 0 59562 55800.00000 0 -5847279.857 -19416973.497 -15448434.926 10 0 59562 56700.00000 0 -4678932.598 -17724046.826 -17716471.053 10 0 59562 57600.00000 0 -3210736.180 -15935361.505 -19639808.321 10 0 59562 58500.00000 0 -1456720.109 -14116620.387 -21181098.327 10 0 59562 59400.00000 0 556270.379 -12331289.580 -22310447.913 10 0 59562 60300.00000 0 2789452.201 -10638004.275 -23005995.027 10 0 59562 61200.00000 0 5193488.687 -9088198.638 -23254326.388 10 0 59562 62100.00000 0 7710322.710 -7724058.495 -23050729.639 10 0 59562 63000.00000 0 10275382.471 -6576881.541 -22399275.907 10 0 59562 63900.00000 0 12820068.233 -5665912.481 -21312731.916 10 0 59562 64800.00000 0 15274416.837 -4997700.309 -19812304.024 10 0 59562 65700.00000 0 17569833.557 -4566002.993 -17927219.586 10 0 59562 66600.00000 0 19641778.088 -4352241.884 -15694154.131 10 0 59562 67500.00000 0 21432293.512 -4326485.222 -13156515.588 10 0 59562 68400.00000 0 22892273.702 -4448917.981 -10363599.460 10 0 59562 69300.00000 0 23983375.357 -4671735.087 -7369631.325 10 0 59562 70200.00000 0 24679495.833 -4941377.398 -4232715.139 10 0 59562 71100.00000 0 24967755.880 -5201015.528 -1013707.582 10 0 59562 72000.00000 0 24848947.034 -5393176.341 2224959.740 10 0 59562 72900.00000 0 24337425.749 -5462401.042 5420487.536 10 0 59562 73800.00000 0 23460459.284 -5357822.498 8510922.290 10 0 59562 74700.00000 0 22257051.296 -5035552.940 11436352.480 10 0 59562 75600.00000 0 20776296.545 -4460781.158 14140064.703 10 0 59562 76500.00000 0 19075333.711 -3609490.485 16569637.679 10 0 59562 77400.00000 0 17216981.821 -2469724.753 18677953.295 10 0 59562 78300.00000 0 15267158.811 -1042348.230 20424105.699 10 0 59562 79200.00000 0 13292189.515 658733.475 21774191.384 10 0 59562 80100.00000 0 11356114.893 2606902.133 22701965.426 10 0 59562 81000.00000 0 9518114.042 4763693.146 23189351.588 10 0 59562 81900.00000 0 7830145.786 7080165.002 23226796.625 10 0 59562 82800.00000 0 6334907.594 9498716.662 22813461.821 10 0 59562 83700.00000 0 5064196.423 11955279.035 21957247.765 10 0 59562 84600.00000 0 4037739.474 14381790.998 20674651.202 10 0 59562 85500.00000 0 3262543.545 16708858.181 18990455.903 10 0 59563 0.00000 0 2732790.093 18868484.645 16937262.698 10 0 59563 900.00000 0 2430280.144 20796765.340 14554865.496 10 0 59563 1800.00000 0 2325411.053 22436424.202 11889487.270 10 0 59563 2700.00000 0 2378643.005 23739095.543 8992886.287 10 0 59563 3600.00000 0 2542394.008 24667249.755 5921352.068 10 0 59563 4500.00000 0 2763282.658 25195683.072 2734609.429 10 0 59563 5400.00000 0 2984623.232 25312507.911 -505347.729 10 0 59563 6300.00000 0 3149066.567 25019601.489 -3735469.653 10 0 59563 7200.00000 0 3201273.710 24332493.314 -6892886.419 10 0 59563 8100.00000 0 3090507.697 23279696.117 -9916140.981 10 0 59563 9000.00000 0 2773032.215 21901508.447 -12746394.496 10 0 59563 9900.00000 0 2214214.147 20248339.730 -15328579.294 10 0 59563 10800.00000 0 1390239.709 18378628.879 -17612476.252 10 0 59563 11700.00000 0 289370.439 16356444.671 -19553695.017 10 0 59563 12600.00000 0 -1087314.876 14248869.408 -21114537.691 10 0 59563 13500.00000 0 -2725724.412 12123276.246 -22264729.305 10 0 59563 14400.00000 0 -4599112.464 10044614.551 -22982001.272 10 0 59563 15300.00000 0 -6668978.865 8072816.990 -23252517.074 10 0 59563 16200.00000 0 -8886471.320 6260436.320 -23071132.701 10 0 59563 17100.00000 0 -11194232.325 4650609.832 -22441487.616 10 0 59563 18000.00000 0 -13528613.689 3275435.300 -21375925.214 10 0 59563 18900.00000 0 -15822166.616 2154824.774 -19895245.015 10 0 59563 19800.00000 0 -18006303.846 1295882.351 -18028291.855 10 0 59563 20700.00000 0 -20014023.258 692830.159 -15811390.397 10 0 59563 21600.00000 0 -21782579.900 327483.783 -13287636.095 10 0 59563 22500.00000 0 -23255995.570 170255.462 -10506056.345 10 0 59563 23400.00000 0 -24387301.767 181641.431 -7520658.127 10 0 59563 24300.00000 0 -25140423.021 314129.566 -4389380.474 10 0 59563 25200.00000 0 -25491622.496 514446.026 -1172971.946 10 0 59563 26100.00000 0 -25430450.023 726045.487 2066185.142 10 0 59563 27000.00000 0 -24960153.407 891739.457 5265281.072 10 0 59563 27900.00000 0 -24097536.276 956351.463 8362292.443 10 0 59563 28800.00000 0 -22872268.691 869286.914 11297179.803 10 0 59563 29700.00000 0 -21325679.558 586909.071 14013046.284 10 0 59563 30600.00000 0 -19509081.283 74620.759 16457235.166 10 0 59563 31500.00000 0 -17481696.532 -691436.174 18582345.471 10 0 59563 32400.00000 0 -15308273.228 -1723135.704 20347146.492 10 0 59563 33300.00000 0 -13056486.720 -3019629.934 21717374.097 10 0 59563 34200.00000 0 -10794236.749 -4567150.882 22666393.854 10 0 59563 35100.00000 0 -8586950.987 -6339361.472 23175718.574 10 0 59563 36000.00000 0 -6495006.574 -8298242.738 23235370.446 10 0 59563 36900.00000 0 -4571376.253 -10395481.921 22844080.688 10 0 59563 37800.00000 0 -2859596.367 -12574305.372 22009322.546 10 0 59563 38700.00000 0 -1392140.786 -14771681.611 20747176.357 10 0 59563 39600.00000 0 -189268.163 -16920804.074 19082028.451 10 0 59563 40500.00000 0 741609.640 -18953751.234 17046108.698 10 0 59563 41400.00000 0 1406011.775 -20804213.803 14678874.556 10 0 59563 42300.00000 0 1821921.857 -22410175.342 12026252.597 10 0 59563 43200.00000 0 2018790.434 -23716434.042 9139751.353 10 0 59563 44100.00000 0 2036048.750 -24676859.537 6075462.162 10 0 59563 45000.00000 0 1921196.872 -25256289.249 2892967.256 10 0 59563 45900.00000 0 1727547.628 -25431983.722 -345823.488 10 0 59563 46800.00000 0 1511722.656 -25194578.775 -3577883.992 10 0 59563 47700.00000 0 1331007.674 -24548493.566 -6740307.108 10 0 59563 48600.00000 0 1240680.330 -23511776.787 -9771538.348 10 0 59563 49500.00000 0 1291425.209 -22115397.136 -12612583.143 10 0 59563 50400.00000 0 1526946.908 -20402007.920 -15208162.917 10 0 59563 51300.00000 0 1981883.513 -18424238.033 -17507796.695 10 0 59563 52200.00000 0 2680109.918 -16242581.545 -19466786.557 10 0 59563 53100.00000 0 3633503.555 -13922975.099 -21047087.470 10 0 59563 54000.00000 0 4841225.362 -11534165.127 -22218044.672 10 0 59563 54900.00000 0 6289546.800 -9144975.455 -22956984.650 10 0 59563 55800.00000 0 7952230.535 -6821589.619 -23249648.811 10 0 59563 56700.00000 0 9791449.044 -4624961.139 -23090462.220 10 0 59563 57600.00000 0 11759202.882 -2608459.088 -22482632.965 10 0 59563 58500.00000 0 13799179.322 -815846.195 -21438081.002 10 0 59563 59400.00000 0 15848973.900 720327.645 -19977198.525 10 0 59563 60300.00000 0 17842582.232 1979851.113 -18128446.980 10 0 59563 61200.00000 0 19713058.294 2955451.280 -15927798.915 10 0 59563 62100.00000 0 21395228.463 3652844.391 -13418035.647 10 0 59563 63000.00000 0 22828348.374 4090237.435 -10647914.397 10 0 59563 63900.00000 0 23958591.905 4297303.118 -7671221.063 10 0 59563 64800.00000 0 24741268.714 4313672.902 -4545726.897 10 0 59563 65700.00000 0 25142677.976 4187012.747 -1332069.181 10 0 59563 66600.00000 0 25141521.111 3970763.576 1907422.413 10 0 59563 67500.00000 0 24729814.711 3721642.411 5109931.183 10 0 59563 68400.00000 0 23913265.674 3497010.018 8213367.251 10 0 59563 69300.00000 0 22711092.940 3352216.354 11157566.497 10 0 59563 70200.00000 0 21155303.290 3338035.944 13885451.616 10 0 59563 71100.00000 0 19289451.246 3498301.408 16344133.195 10 0 59563 72000.00000 0 17166934.553 3867835.019 18485929.816 10 0 59563 72900.00000 0 14848895.832 4470765.630 20269288.000 10 0 59563 73800.00000 0 12401817.129 5319302.282 21659584.727 10 0 59563 74700.00000 0 9894906.813 6413016.753 22629797.441 10 0 59563 75600.00000 0 7397386.551 7738666.204 23161029.005 10 0 59563 76500.00000 0 4975790.256 9270564.753 23242877.656 10 0 59563 77400.00000 0 2691386.401 10971489.933 22873644.741 10 0 59563 78300.00000 0 597829.986 12794087.862 22060375.917 10 0 59563 79200.00000 0 -1260858.928 14682720.114 20818734.425 10 0 59563 80100.00000 0 -2851906.475 16575676.640 19172708.023 10 0 59563 81000.00000 0 -4154919.335 18407663.580 17154154.294 10 0 59563 81900.00000 0 -5162495.149 20112462.893 14802191.984 10 0 59563 82800.00000 0 -5880283.634 21625652.927 12162449.238 10 0 59563 83700.00000 0 -6326496.105 22887276.023 9286182.412 10 0 59563 84600.00000 0 -6530884.332 23844340.837 6229282.004 10 0 59563 85500.00000 0 -6533232.096 24453053.499 3051184.833 10 0 59564 0.00000 0 -6381423.771 24680682.797 -186285.900 10 0 59564 900.00000 0 -6129172.251 24506979.818 -3420131.404 10 0 59564 1800.00000 0 -5833503.619 23925090.919 -6587410.043 10 0 59564 2700.00000 0 -5552106.014 22941925.062 -9626472.867 10 0 59564 3600.00000 0 -5340656.471 21577958.900 -12478172.406 10 0 59564 4500.00000 0 -5250240.259 19866487.637 -15087021.814 10 0 59564 5400.00000 0 -5324973.248 17852353.015 -17402280.631 10 0 59564 6300.00000 0 -5599929.008 15590201.959 -19378945.475 10 0 59564 7200.00000 0 -6099459.156 13142349.308 -20978625.988 10 0 59564 8100.00000 0 -6835978.491 10576334.513 -22170289.120 10 0 59564 9000.00000 0 -7809266.619 7962274.753 -22930857.630 10 0 59564 9900.00000 0 -9006315.616 5370125.253 -23245651.712 10 0 59564 10800.00000 0 -10401730.279 2866960.875 -23108665.984 10 0 59564 11700.00000 0 -11958664.155 514391.809 -22522677.234 10 0 59564 12600.00000 0 -13630252.022 -1633779.819 -21499181.602 10 0 59564 13500.00000 0 -15361478.856 -3533566.048 -20058163.108 10 0 59564 14400.00000 0 -17091407.045 -5152379.888 -18227698.518 10 0 59564 15300.00000 0 -18755668.740 -6470138.395 -16043406.548 10 0 59564 16200.00000 0 -20289119.227 -7479837.923 -13547752.317 10 0 59564 17100.00000 0 -21628540.515 -8187579.513 -10789220.528 10 0 59564 18000.00000 0 -22715282.199 -8612045.185 -7821373.449 10 0 59564 18900.00000 0 -23497729.306 -8783448.889 -4701811.864 10 0 59564 19800.00000 0 -23933494.027 -8742007.679 -1491058.979 10 0 59564 20700.00000 0 -23991239.675 -8535998.581 1748611.051 10 0 59564 21600.00000 0 -23652060.637 -8219483.958 4954377.459 10 0 59564 22500.00000 0 -22910360.533 -7849801.810 8064086.835 10 0 59564 23400.00000 0 -21774191.736 -7484927.196 11017453.309 10 0 59564 24300.00000 0 -20265041.848 -7180816.221 13757221.986 10 0 59564 25200.00000 0 -18417075.672 -6988844.573 16230273.434 10 0 59564 26100.00000 0 -16275863.833 -6953448.558 18388648.223 10 0 59564 27000.00000 0 -13896650.399 -7110067.989 20190472.197 10 0 59564 27900.00000 0 -11342230.787 -7483477.687 21600765.144 10 0 59564 28800.00000 0 -8680527.378 -8086578.078 22592117.633 10 0 59564 29700.00000 0 -5981962.552 -8919696.346 23145223.376 10 0 59564 30600.00000 0 -3316737.147 -9970428.445 23249257.014 10 0 59564 31500.00000 0 -752126.399 -11214029.741 22902089.973 10 0 59564 32400.00000 0 1650095.402 -12614339.402 22110339.921 10 0 59564 33300.00000 0 3835995.409 -14125201.341 20889252.277 10 0 59564 34200.00000 0 5761491.180 -15692323.693 19262415.236 10 0 59564 35100.00000 0 7393945.037 -17255500.309 17261312.823 10 0 59564 36000.00000 0 8713277.714 -18751102.253 14924723.555 10 0 59564 36900.00000 0 9712554.988 -20114735.447 12297975.352 10 0 59564 37800.00000 0 10398022.979 -21283953.162 9432070.344 10 0 59564 38700.00000 0 10788590.903 -22200909.140 6382695.878 10 0 59564 39600.00000 0 10914783.352 -22814839.072 3209140.859 10 0 59564 40500.00000 0 10817206.789 -23084265.001 -26861.458 10 0 59564 41400.00000 0 10544595.729 -22978828.539 -3262341.174 10 0 59564 42300.00000 0 10151522.073 -22480674.379 -6434325.578 10 0 59564 43200.00000 0 9695865.679 -21585324.525 -9481074.081 10 0 59564 44100.00000 0 9236154.457 -20302005.363 -12343289.104 10 0 59564 45000.00000 0 8828887.879 -18653413.008 -14965278.221 10 0 59564 45900.00000 0 8525958.442 -16674926.298 -17296044.059 10 0 59564 46800.00000 0 8372281.217 -14413300.276 -19290280.119 10 0 59564 47700.00000 0 8403732.540 -11924895.009 -20909252.800 10 0 59564 48600.00000 0 8645485.465 -9273514.092 -22121552.500 10 0 59564 49500.00000 0 9110812.514 -6527943.349 -22903699.589 10 0 59564 50400.00000 0 9800406.215 -3759292.658 -23240593.970 10 0 59564 51300.00000 0 10702245.897 -1038251.624 -23125800.312 10 0 59564 52200.00000 0 11792016.128 1567627.011 -22561664.185 10 0 59564 53100.00000 0 13034058.899 3996503.748 -21559257.624 10 0 59564 54000.00000 0 14382819.341 6194582.346 -20138155.840 10 0 59564 54900.00000 0 15784724.128 8118097.869 -18326049.939 10 0 59564 55800.00000 0 17180413.654 9734881.478 -16158203.513 10 0 59564 56700.00000 0 18507234.361 11025438.590 -13676763.852 10 0 59564 57600.00000 0 19701886.794 11983497.288 -10929941.171 10 0 59564 58500.00000 0 20703118.382 12616005.920 -7971071.805 10 0 59564 59400.00000 0 21454348.178 12942581.800 -4857583.455 10 0 59564 60300.00000 0 21906113.566 12994435.799 -1649882.388 10 0 59564 61200.00000 0 22018236.359 12812819.329 1589815.806 10 0 59564 62100.00000 0 21761617.457 12447060.147 4798689.419 10 0 59564 63000.00000 0 21119584.717 11952270.473 7914524.622 10 0 59564 63900.00000 0 20088737.315 11386824.398 10876916.812 10 0 59564 64800.00000 0 18679250.900 10809711.165 13628436.331 10 0 59564 65700.00000 0 16914630.204 10277875.796 16115736.344 10 0 59564 66600.00000 0 14830918.800 9843659.046 18290581.770 10 0 59564 67500.00000 0 12475398.089 9552444.236 20110779.867 10 0 59564 68400.00000 0 9904828.690 9440609.920 21540995.023 10 0 59564 69300.00000 0 7183306.346 9533874.451 22553432.420 10 0 59564 70200.00000 0 4379820.212 9846102.239 23128377.769 10 0 59564 71100.00000 0 1565613.639 10378622.304 23254582.884 10 0 59564 72000.00000 0 -1188544.124 11120088.497 22929489.630 10 0 59564 72900.00000 0 -3815063.278 12046888.244 22159287.592 10 0 59564 73800.00000 0 -6252104.566 13124083.925 20958803.811 10 0 59564 74700.00000 0 -8445910.039 14306848.640 19351225.887 10 0 59564 75600.00000 0 -10352797.188 15542337.401 17367662.823 10 0 59564 76500.00000 0 -11940733.802 16771916.280 15046551.045 10 0 59564 77400.00000 0 -13190428.038 17933656.591 12432916.089 10 0 59564 78300.00000 0 -14095888.302 18964989.642 9577503.432 10 0 59564 79200.00000 0 -14664429.637 19805410.252 6535794.696 10 0 59564 80100.00000 0 -14916126.545 20399114.601 3366928.155 10 0 59564 81000.00000 0 -14882735.646 20697460.350 132544.626 10 0 59564 81900.00000 0 -14606134.167 20661144.002 -3104418.313 10 0 59564 82800.00000 0 -14136340.949 20262002.299 -6280959.456 10 0 59564 83700.00000 0 -13529204.617 19484360.215 -9335249.408 10 0 59564 84600.00000 0 -12843857.833 18325867.394 -12207843.254 10 0 59564 85500.00000 0 -12140046.516 16797786.679 -14842845.614 99